Weather History for PAAK - November, 2013

Change the Weather History Date:

Tuesday, November 12, 2013

  Actual Average (PADK) Record (PADK)
Temperature  
Mean Temperature 46 °F -  
Max Temperature 51 °F 43 °F 50 °F (1986)
Min Temperature 42 °F 35 °F 22 °F (1950)
Degree Days  
Heating Degree Days 18    
Moisture  
Dew Point 41 °F    
Average Humidity 81    
Maximum Humidity 87    
Minimum Humidity 71    
Precipitation  
Precipitation 0.00 in - - ()
Sea Level Pressure  
Sea Level Pressure 30.50 in    
Wind  
Wind Speed 8 mph (WSW)    
Max Wind Speed 17 mph    
Max Gust Speed 21 mph    
Visibility 10 miles    
Events      
Averages and records for this station are not official NWS values.
T = Trace of Precipitation, MM = Missing Value Source: NWS Daily Summary

Daily Weather History Graph

Daily Weather History Graph

Search for Another Location

Airport or City:

Trip Planner

Search our weather history database for the weather conditions in past years. The results will help you decide how hot, cold, wet, or windy it might be!

Date:

Astronomy

Nov. 12, 2013 Rise Set
Actual Time 8:53 AM HST 5:48 PM HST
Civil Twilight 8:15 AM HST 6:25 PM HST
Nautical Twilight 7:34 AM HST 7:06 PM HST
Astronomical Twilight 6:54 AM HST 7:46 PM HST
Moon 3:41 PM HST (11/12) 3:22 AM HST (11/12)
Length of Visible Light 10h 09m
Length of Day
8h 55m
Waxing Gibbous, 78% of the Moon is Illuminated
Nov 12
Waxing Gibbous
Nov 17
Full
Nov 25
Last Quarter
Dec 2
New
Dec 9
First Quarter

Hourly Weather History & Observations

Time (HST) Temp. Windchill Dew Point Humidity Pressure Visibility Wind Dir Wind Speed Gust Speed Precip Events Conditions
12:16 AM 42.8 °F 37.5 °F 37.4 °F 81% 30.56 in 10.0 mi WNW 9.2 mph - N/A   Overcast
12:36 AM 44.6 °F 40.7 °F 35.6 °F 71% 30.56 in 10.0 mi West 6.9 mph - N/A   Overcast
12:56 AM 44.6 °F 41.4 °F 35.6 °F 71% 30.55 in 10.0 mi West 5.8 mph - N/A   Overcast
1:16 AM 42.8 °F 38.6 °F 35.6 °F 76% 30.55 in 10.0 mi West 6.9 mph - N/A   Scattered Clouds
1:36 AM 42.8 °F 38.6 °F 35.6 °F 76% 30.54 in 10.0 mi WSW 6.9 mph - N/A   Scattered Clouds
1:56 AM 42.8 °F 38.6 °F 35.6 °F 76% 30.54 in 10.0 mi West 6.9 mph - N/A   Partly Cloudy
2:16 AM 42.8 °F - 35.6 °F 76% 30.52 in 10.0 mi Calm Calm - N/A   Partly Cloudy
2:36 AM 44.6 °F - 35.6 °F 71% 30.51 in 10.0 mi Calm Calm - N/A   Mostly Cloudy
2:56 AM 44.6 °F 39.7 °F 35.6 °F 71% 30.50 in 10.0 mi North 9.2 mph - N/A   Overcast
3:16 AM 44.6 °F 40.2 °F 35.6 °F 71% 30.49 in 10.0 mi NNW 8.1 mph - N/A   Overcast
3:36 AM 42.8 °F 37.5 °F 35.6 °F 76% 30.49 in 10.0 mi North 9.2 mph - N/A   Partly Cloudy
3:56 AM 42.8 °F 39.3 °F 35.6 °F 76% 30.49 in 10.0 mi WNW 5.8 mph - N/A   Clear
4:16 AM 46.4 °F 41.9 °F 39.2 °F 76% 30.49 in 10.0 mi NW 9.2 mph - N/A   Clear
4:36 AM 46.4 °F 39.8 °F 37.4 °F 71% 30.49 in 10.0 mi West 16.1 mph - N/A   Clear
4:56 AM 46.4 °F 40.7 °F 37.4 °F 71% 30.49 in 10.0 mi WNW 12.7 mph - N/A   Clear
5:16 AM 46.4 °F 41.1 °F 37.4 °F 71% 30.49 in 10.0 mi West 11.5 mph - N/A   Clear
5:36 AM 46.4 °F 41.1 °F 39.2 °F 76% 30.49 in 10.0 mi West 11.5 mph - N/A   Clear
5:56 AM 46.4 °F 41.1 °F 39.2 °F 76% 30.49 in 10.0 mi West 11.5 mph - N/A   Clear
6:16 AM 48.2 °F - 41.0 °F 76% 30.49 in 10.0 mi Calm Calm - N/A   Clear
6:36 AM 48.2 °F - 42.8 °F 82% 30.49 in 10.0 mi West 10.4 mph - N/A   Partly Cloudy
6:56 AM 48.2 °F - 42.8 °F 82% 30.49 in 10.0 mi West 9.2 mph - N/A   Mostly Cloudy
7:16 AM 48.2 °F - 42.8 °F 82% 30.48 in 10.0 mi West 9.2 mph - N/A   Partly Cloudy
7:36 AM 50.0 °F - 44.6 °F 82% 30.48 in 10.0 mi West 11.5 mph - N/A   Clear
7:56 AM 50.0 °F - 42.8 °F 76% 30.48 in 10.0 mi West 11.5 mph - N/A   Clear
8:16 AM 50.0 °F - 44.6 °F 82% 30.49 in 10.0 mi West 10.4 mph - N/A   Clear
8:36 AM 48.2 °F - 42.8 °F 82% 30.49 in 10.0 mi Calm Calm - N/A   Clear
8:56 AM 46.4 °F - 42.8 °F 87% 30.50 in 10.0 mi Calm Calm - N/A   Partly Cloudy
9:16 AM 48.2 °F - 44.6 °F 87% 30.49 in 10.0 mi West 3.5 mph - N/A   Mostly Cloudy
9:36 AM 50.0 °F - 44.6 °F 82% 30.49 in 10.0 mi Calm Calm - N/A   Scattered Clouds
9:56 AM 48.2 °F - 44.6 °F 87% 30.49 in 10.0 mi Calm Calm - N/A   Scattered Clouds
10:16 AM 46.4 °F - 42.8 °F 87% 30.50 in 10.0 mi Calm Calm - N/A   Mostly Cloudy
10:36 AM 46.4 °F - 42.8 °F 87% 30.50 in 10.0 mi Calm Calm - N/A   Mostly Cloudy
10:56 AM 48.2 °F - 44.6 °F 87% 30.50 in 10.0 mi SW 12.7 mph - N/A   Overcast
11:16 AM 48.2 °F - 44.6 °F 87% 30.50 in 10.0 mi Calm Calm - N/A   Overcast
11:36 AM 50.0 °F - 44.6 °F 82% 30.50 in 10.0 mi SW 12.7 mph - N/A   Overcast
11:56 AM 50.0 °F - 44.6 °F 82% 30.50 in 10.0 mi WSW 8.1 mph - N/A   Overcast
12:16 PM 50.0 °F - 44.6 °F 82% 30.49 in 10.0 mi SW 8.1 mph - N/A   Overcast
12:36 PM 51.8 °F - 46.4 °F 82% 30.49 in 10.0 mi SW 10.4 mph - N/A   Overcast
12:56 PM 50.0 °F - 44.6 °F 82% 30.48 in 10.0 mi SW 12.7 mph - N/A   Scattered Clouds
1:16 PM 51.8 °F - 44.6 °F 76% 30.48 in 10.0 mi SW 10.4 mph - N/A   Scattered Clouds
1:36 PM 51.8 °F - 44.6 °F 76% 30.48 in 10.0 mi SW 12.7 mph 20.7 mph N/A   Mostly Cloudy
1:56 PM 50.0 °F - 44.6 °F 82% 30.48 in 10.0 mi SW 13.8 mph - N/A   Overcast
2:16 PM 48.2 °F - 42.8 °F 82% 30.48 in 10.0 mi SW 15.0 mph - N/A   Overcast
2:36 PM 50.0 °F - 44.6 °F 82% 30.48 in 10.0 mi SW 16.1 mph - N/A   Overcast
2:56 PM 50.0 °F - 44.6 °F 82% 30.46 in 10.0 mi SW 17.3 mph - N/A   Mostly Cloudy
3:16 PM 48.2 °F - 42.8 °F 82% 30.46 in 9.0 mi SW 16.1 mph - N/A   Mostly Cloudy
3:36 PM 50.0 °F - 42.8 °F 76% 30.47 in 10.0 mi SW 13.8 mph 18.4 mph N/A   Partly Cloudy
3:56 PM 48.2 °F - 42.8 °F 82% 30.47 in 10.0 mi SW 11.5 mph - N/A   Clear
4:16 PM 48.2 °F - 42.8 °F 82% 30.47 in 10.0 mi SW 11.5 mph - N/A   Clear
4:36 PM 50.0 °F - 42.8 °F 76% 30.48 in 10.0 mi WSW 8.1 mph - N/A   Scattered Clouds
4:56 PM 48.2 °F - 42.8 °F 82% 30.48 in 10.0 mi WSW 8.1 mph - N/A   Mostly Cloudy
5:16 PM 48.2 °F - 42.8 °F 82% 30.48 in 10.0 mi WSW 9.2 mph - N/A   Partly Cloudy
5:36 PM 48.2 °F - 42.8 °F 82% 30.48 in 10.0 mi WSW 10.4 mph - N/A   Clear
5:56 PM 46.4 °F 41.1 °F 42.8 °F 87% 30.49 in 10.0 mi WSW 11.5 mph - N/A   Clear
6:16 PM 46.4 °F 40.4 °F 42.8 °F 87% 30.49 in 10.0 mi SW 13.8 mph - N/A   Clear
6:36 PM 46.4 °F 41.5 °F 42.8 °F 87% 30.50 in 10.0 mi WSW 10.4 mph - N/A   Clear
6:56 PM 46.4 °F 40.7 °F 42.8 °F 87% 30.50 in 10.0 mi SW 12.7 mph - N/A   Clear
7:16 PM 46.4 °F 40.7 °F 42.8 °F 87% 30.51 in 10.0 mi WSW 12.7 mph 19.6 mph N/A   Clear
7:36 PM 46.4 °F 40.7 °F 42.8 °F 87% 30.51 in 10.0 mi SW 12.7 mph - N/A   Clear
7:56 PM 46.4 °F 40.4 °F 42.8 °F 87% 30.51 in 10.0 mi SW 13.8 mph - N/A   Scattered Clouds
8:16 PM 46.4 °F 40.4 °F 42.8 °F 87% 30.51 in 10.0 mi SW 13.8 mph - N/A   Mostly Cloudy
8:36 PM 46.4 °F 41.5 °F 42.8 °F 87% 30.51 in 10.0 mi SW 10.4 mph - N/A   Mostly Cloudy
8:56 PM 46.4 °F 41.5 °F 42.8 °F 87% 30.52 in 10.0 mi WSW 10.4 mph - N/A   Overcast
9:16 PM 46.4 °F 40.7 °F 42.8 °F 87% 30.53 in 10.0 mi SW 12.7 mph - N/A   Overcast
9:36 PM 46.4 °F 43.5 °F 42.8 °F 87% 30.53 in 10.0 mi SW 5.8 mph - N/A   Overcast
9:56 PM 46.4 °F 42.9 °F 41.0 °F 81% 30.53 in 10.0 mi SSW 6.9 mph - N/A   Mostly Cloudy
10:16 PM 46.4 °F 42.9 °F 41.0 °F 81% 30.52 in 10.0 mi West 6.9 mph - N/A   Clear
10:36 PM 44.6 °F - 41.0 °F 87% 30.52 in 10.0 mi Calm Calm - N/A   Partly Cloudy
10:56 PM 44.6 °F 43.1 °F 39.2 °F 81% 30.52 in 10.0 mi NW 3.5 mph - N/A   Clear
11:16 PM 44.6 °F 43.1 °F 39.2 °F 81% 30.52 in 10.0 mi NNW 3.5 mph - N/A   Clear
11:36 PM 46.4 °F 42.9 °F 41.0 °F 81% 30.51 in 10.0 mi East 6.9 mph - N/A   Clear
11:56 PM 46.4 °F 45.2 °F 39.2 °F 76% 30.52 in 10.0 mi NE 3.5 mph - N/A   Partly Cloudy